Weather History for KLAX - November, 2013

Change the Weather History Date:

Friday, November 29, 2013

  Actual Average Record
Temperature  
Mean Temperature 61 °F 58 °F  
Max Temperature 65 °F 66 °F 85 °F (1977)
Min Temperature 57 °F 50 °F 41 °F (1975)
Degree Days  
Heating Degree Days 4 7  
Month to date heating degree days 56 131  
Since 1 July heating degree days 96 175  
Cooling Degree Days 0 0  
Month to date cooling degree days 40 18  
Year to date cooling degree days 702 549  
Growing Degree Days 10 (Base 50)    
Moisture  
Dew Point 52 °F    
Average Humidity 75    
Maximum Humidity 86    
Minimum Humidity 63    
Precipitation  
Precipitation 0.31 in 0.04 in 1.64 in (1985)
Month to date precipitation 0.69 1.06  
Year to date precipitation 3.35 10.72  
Since 1 July precipitation 0.74 1.91  
Sea Level Pressure  
Sea Level Pressure 30.13 in    
Wind  
Wind Speed 4 mph (ENE)    
Max Wind Speed 14 mph    
Max Gust Speed 17 mph    
Visibility 9 miles    
Events Rain    
T = Trace of Precipitation, MM = Missing Value Source: NWS Daily Summary

Daily Weather History Graph

Daily Weather History Graph

Search for Another Location

Airport or City:

Trip Planner

Search our weather history database for the weather conditions in past years. The results will help you decide how hot, cold, wet, or windy it might be!

Date:

Astronomy

Nov. 29, 2013 Rise Set
Actual Time 6:39 AM PST 4:44 PM PST
Civil Twilight 6:11 AM PST 5:11 PM PST
Nautical Twilight 5:41 AM PST 5:42 PM PST
Astronomical Twilight 5:10 AM PST 6:12 PM PST
Moon 2:58 AM PST (11/29) 2:24 PM PST (11/29)
Length of Visible Light 10h 59m
Length of Day
10h 05m
Waning Crescent, 13% of the Moon is Illuminated
Nov 29
Waning Crescent
Dec 2
New
Dec 9
First Quarter
Dec 17
Full
Dec 25
Last Quarter

Hourly Weather History & Observations

Time (PST) Temp. Dew Point Humidity Pressure Visibility Wind Dir Wind Speed Gust Speed Precip Events Conditions
12:53 AM 60.1 °F 54.0 °F 80% 30.06 in 10.0 mi ENE 4.6 mph - 0.00 in Rain Light Rain
1:53 AM 60.1 °F 54.0 °F 80% 30.06 in 10.0 mi NE 4.6 mph - 0.00 in   Mostly Cloudy
2:53 AM 59.0 °F 53.1 °F 81% 30.08 in 10.0 mi Calm Calm - 0.00 in Rain Light Rain
3:53 AM 59.0 °F 53.1 °F 81% 30.07 in 10.0 mi NE 4.6 mph - 0.03 in Rain Light Rain
4:53 AM 59.0 °F 51.1 °F 75% 30.07 in 10.0 mi NE 4.6 mph - 0.00 in   Overcast
5:53 AM 59.0 °F 50.0 °F 72% 30.09 in 10.0 mi Calm Calm - N/A   Mostly Cloudy
6:53 AM 59.0 °F 50.0 °F 72% 30.11 in 10.0 mi East 3.5 mph - 0.00 in Rain Light Rain
7:53 AM 59.0 °F 51.1 °F 75% 30.12 in 8.0 mi East 4.6 mph - 0.00 in Rain Light Rain
8:53 AM 57.9 °F 52.0 °F 81% 30.15 in 7.0 mi East 11.5 mph - 0.04 in Rain Light Rain
9:53 AM 57.9 °F 54.0 °F 87% 30.16 in 4.0 mi ENE 11.5 mph - 0.07 in Rain Rain
10:53 AM 57.9 °F 53.1 °F 84% 30.18 in 8.0 mi East 9.2 mph - 0.01 in Rain Light Rain
11:53 AM 57.9 °F 52.0 °F 81% 30.15 in 7.0 mi East 8.1 mph - 0.02 in Rain Light Rain
12:53 PM 57.9 °F 53.1 °F 84% 30.13 in 5.0 mi Calm Calm - 0.08 in Rain Rain
1:53 PM 60.1 °F 53.1 °F 78% 30.11 in 5.0 mi NE 6.9 mph - 0.05 in Rain Light Rain
2:53 PM 62.1 °F 55.0 °F 78% 30.11 in 10.0 mi East 4.6 mph - 0.01 in   Mostly Cloudy
3:53 PM 64.9 °F 52.0 °F 63% 30.11 in 10.0 mi ENE 4.6 mph - N/A   Mostly Cloudy
4:53 PM 63.0 °F 53.1 °F 70% 30.12 in 10.0 mi North 4.6 mph - N/A   Mostly Cloudy
5:53 PM 63.0 °F 53.1 °F 70% 30.13 in 10.0 mi NNE 3.5 mph - N/A   Mostly Cloudy
6:53 PM 63.0 °F 53.1 °F 70% 30.14 in 10.0 mi Calm Calm - N/A   Mostly Cloudy
7:53 PM 63.0 °F 52.0 °F 67% 30.17 in 10.0 mi Calm Calm - N/A   Scattered Clouds
8:53 PM 62.1 °F 51.1 °F 67% 30.17 in 10.0 mi Variable 4.6 mph - N/A   Scattered Clouds
9:53 PM 60.1 °F 51.1 °F 72% 30.18 in 10.0 mi Calm Calm - N/A   Scattered Clouds
10:53 PM 60.1 °F 50.0 °F 69% 30.17 in 10.0 mi Calm Calm - N/A   Partly Cloudy
11:53 PM 57.9 °F 50.0 °F 75% 30.16 in 10.0 mi SE 4.6 mph - N/A   Scattered Clouds